Preview of NWS' New Version of Forecast
This preview is not operational and should not be used for support decisions.

Regional Weather Roundup (RWR)

Issued by National Weather Service (NWS)

                            
000
ASUS43 KIND 211009
RWRIN 

WEATHER ROUNDUP FOR INDIANA
NATIONAL WEATHER SERVICE INDIANAPOLIS IN
500 AM EST MON JAN 21 2019

NOTE: "FAIR" INDICATES FEW OR NO CLOUDS BELOW 12,000 FEET WITH NO
SIGNIFICANT WEATHER AND/OR OBSTRUCTIONS TO VISIBILITY.

* - STATION DOES NOT REPORT WEATHER SUCH AS PRECIPITATION OR FOG.

+ - STATION NOT QUALITY CONTROLLED BY THE NATIONAL WEATHER SERVICE.
    USE DATA WITH CAUTION...ESPECIALLY DEWPOINT AND RELATIVE
    HUMIDITY OBSERVATIONS.

INZ001>003-010>013-019-020-211100-
NORTHWEST INDIANA
  
CITY           SKY/WX    TMP DP  RH WIND       PRES   REMARKS
GARY /AIRPORT/ CLOUDY    11   1  62 SE8       30.49R WCI  -1          
KNOX *+        FAIR       0  -9  65 E12       30.48R WCI -18          
LA PORTE +     FAIR      -3 -10  69 E7        30.48R WCI -16          
MICHIGAN CITY+ FAIR       3  -9  55 E3        30.49R                  
MONTICELLO +   FAIR       2 -11  53 NE6       30.48R WCI  -9          
RENSSELAER +   CLOUDY    10  -2  56 E9        30.49R WCI  -2          
VALPARAISO     CLOUDY     6  -7  54 E6        30.48R WCI  -4          

$$

LMZ046-743>745-211100-
SOUTHERN LAKE MICHIGAN
  
STATION/POSITION TIME  TEMP    WIND        PRES    WAVE
                       AIR SEA DIR/SP/G            HT
                 (UTC) (F)     (DEG/KT/KT) (MB)    (FT)
BURNS HARBOR     0930    9     180/  3/  4 1032.5S

$$

INZ004-005-014>016-021>024-211100-
NORTH CENTRAL INDIANA
  
CITY           SKY/WX    TMP DP  RH WIND       PRES   REMARKS
GOSHEN         FAIR      -8 -12  83 CALM      30.47R                  
LOGANSPORT +   FAIR       0  -9  65 N5        30.49R WCI -10          
PERU/GRISSOM   FAIR      -2 -10  68 N7        30.45S WCI -15          
PLYMOUTH *+    CLEAR     -6  -8  92 CALM      30.48R                  
ROCHESTER +    FAIR       0  -8  71 N3        30.48R                  
SOUTH BEND     FAIR      -9 -14  78 N5        30.49R WCI -20          
WARSAW +       FAIR      -4 -13  65 N3        30.46S                  

$$

INZ006>009-017-018-025>027-211100-
NORTHEAST INDIANA
  
CITY           SKY/WX    TMP DP  RH WIND       PRES   REMARKS
ANGOLA *+      FAIR      -8 -13  77 NW5       30.43R WCI -19          
AUBURN +       FAIR      -6 -13  71 CALM      30.45R                  
FORT WAYNE     FAIR      -3 -13  62 N5        30.46R WCI -13          
HUNTINGTON +   FAIR      -4 -15  60 CALM      30.45F                  
KENDALLVILLE + FAIR      -8 -16  69 NW3       30.44R                  

$$

INZ028-029-035-036-043>045-051>053-211100-
WEST CENTRAL INDIANA
  
CITY           SKY/WX    TMP DP  RH WIND       PRES   REMARKS
CRAWFORDSVL +  FAIR       2   0  89 NE3       30.46R                  
GREENCASTLE +  FAIR       3   0  85 CALM      30.46R                  
LAFAYETTE      FAIR       6  -5  60 N6        30.48R WCI  -4          
TERRE HAUTE    FAIR       4   1  88 NE3       30.47S                  

$$

INZ030>032-037>040-046>048-054>057-064-065-211100-
CENTRAL INDIANA
  
CITY           SKY/WX    TMP DP  RH WIND       PRES   REMARKS
ANDERSON +     FAIR       1  -3  83 CALM      30.44S                  
FRANKFORT +    MOCLDY     7  -6  54 NE9       30.46S WCI  -6          
GREENWOOD *+   FAIR       6   2  84 N5        30.43S WCI  -3          
INDIANAPOLIS   FAIR       7  -2  66 N9        30.45R WCI  -7          
-EAGLE CREEK   FAIR       6  -4  63 N3        30.44R                  
KOKOMO +       FAIR      -2  -8  76 N7        30.46S WCI -15          
MARION +       FAIR      -3 -12  63 CALM      30.46S                  
MT COMFORT *+  FAIR       3   0  85 N9        30.42F WCI -11          
SHELBYVILLE    FAIR       8   1  73 N7        30.42S WCI  -3          
ZIONSVILLE +   FAIR       2  -5  73 CALM      30.43F                  

$$

INZ033-034-041-042-049-050-058-059-211100-
EAST CENTRAL INDIANA
  
CITY           SKY/WX    TMP DP  RH WIND       PRES   REMARKS
MUNCIE         FAIR       1  -8  66 NE6       30.43S WCI -10          
PORTLAND +     FAIR      -4 -11  71 CALM      30.43S                  
RICHMOND +     FAIR       1   0  92 MISG      30.40R                  

$$

INZ060-061-067>069-081>083-085>088-211100-
SOUTHWEST INDIANA
  
CITY           SKY/WX    TMP DP  RH WIND       PRES   REMARKS
EVANSVILLE     FAIR      11  10  96 CALM      30.47R                  
HUNTINGBURG +  FAIR       8   6  92 N3        30.46R                  
WASHINGTON +   FAIR       9   5  82 NE3       30.47S                  

$$

INZ062-063-066-070>080-084-089>092-211100-
SOUTH CENTRAL AND SOUTHEAST INDIANA
  
CITY           SKY/WX    TMP DP  RH WIND       PRES   REMARKS
BATESVILLE +   CLEAR     -4  -6  92 CALM      30.41                   
BEDFORD +      FAIR       1  -2  85 CALM      30.44S                  
BLOOMINGTON      N/A    N/A N/A N/A MISG      30.43S                  
FRENCH LICK *+ FAIR       7   0  72 NE6       30.43S WCI  -3          
JEFFERSONVL +  FAIR       9   7  90 CALM      30.47R                  
MADISON *+     FAIR       3   3 100 CALM      30.45R                  
NORTH VERNON + FAIR       1  -2  85 CALM      30.44R                  
SEYMOUR +      FAIR       7   3  85 NW3       30.47R                  

$$